• In Russia
  • List of Countries
  • For 7 days
  • Water Temperature
  • Satellite Maps
  • Weather Map
  • Weather Widgets
  • user-avatar
    Login

    Hourly Weather Klagenfurt

    Today, 27 March, Monday

    Time Temperature Precipitation Wind Pressure Humidity
    00:00 +1°C° 0 mm 1 mps 693 mmHg 82%
    01:00 0°C° 0 mm 1 mps 693 mmHg 82%
    02:00 0°C° 0 mm 1 mps 693 mmHg 83%
    03:00 0°C° 0 mm 1 mps 693 mmHg 84%
    04:00 0°C° 0 mm 1 mps 693 mmHg 85%
    05:00 +1°C° 0 mm 1 mps 694 mmHg 81%
    06:00 +1°C° 0 mm 1 mps 694 mmHg 77%
    07:00 +2°C° 0 mm 1 mps 695 mmHg 67%
    08:00 +4°C° 0 mm 1 mps 695 mmHg 58%
    09:00 +7°C° 0 mm 1 mps 695 mmHg 48%
    10:00 +9°C° 0 mm 1 mps 695 mmHg 39%
    11:00 +10°C° 0 mm 1 mps 695 mmHg 36%
    12:00 +10°C° 0 mm 2 mps 695 mmHg 33%
    13:00 +12°C° 0 mm 2 mps 695 mmHg 30%
    14:00 +12°C° 0 mm 2 mps 695 mmHg 32%
    15:00 +10°C° 0 mm 2 mps 694 mmHg 35%
    16:00 +10°C° 0 mm 2 mps 694 mmHg 37%
    17:00 +8°C° 0 mm 1 mps 694 mmHg 49%
    18:00 +5°C° 0 mm 1 mps 693 mmHg 60%
    19:00 +2°C° 0 mm 1 mps 693 mmHg 72%
    20:00 +2°C° 0 mm 1 mps 693 mmHg 73%
    21:00 +2°C° 0 mm 1 mps 693 mmHg 74%
    22:00 +1°C° 0 mm 1 mps 693 mmHg 74%
    23:00 +1°C° 0 mm 1 mps 693 mmHg 74%

    Tomorrow, 28 March, Tuesday

    Time Temperature Precipitation Wind Pressure Humidity
    00:00 0°C° 0 mm 0 mps 693 mmHg 74%
    01:00 0°C° 0 mm 0 mps 693 mmHg 74%
    02:00 0°C° 0 mm 0 mps 693 mmHg 73%
    03:00 0°C° 0 mm 0 mps 693 mmHg 73%
    04:00 0°C° 0 mm 0 mps 693 mmHg 72%
    05:00 +1°C° 0 mm 0 mps 693 mmHg 68%
    06:00 +2°C° 0 mm 0 mps 693 mmHg 65%
    07:00 +3°C° 0 mm 0 mps 693 mmHg 61%
    08:00 +7°C° 0 mm 1 mps 694 mmHg 52%
    09:00 +10°C° 0 mm 1 mps 695 mmHg 43%
    10:00 +13°C° 0 mm 1 mps 695 mmHg 35%
    11:00 +14°C° 0 mm 1 mps 695 mmHg 34%
    12:00 +15°C° 0 mm 1 mps 695 mmHg 34%
    13:00 +16°C° 0 mm 1 mps 695 mmHg 34%
    14:00 +16°C° 0 mm 1 mps 695 mmHg 37%
    15:00 +15°C° 0 mm 1 mps 695 mmHg 40%
    16:00 +15°C° 0 mm 1 mps 694 mmHg 43%
    17:00 +11°C° 0 mm 1 mps 694 mmHg 57%
    18:00 +8°C° 0 mm 1 mps 693 mmHg 71%
    19:00 +3°C° 0 mm 0 mps 693 mmHg 85%
    20:00 +3°C° 0 mm 0 mps 693 mmHg 85%
    21:00 +3°C° 0 mm 0 mps 693 mmHg 86%
    22:00 +3°C° 0 mm 0 mps 694 mmHg 87%
    23:00 +3°C° 0 mm 0 mps 694 mmHg 87%

    Day after tomorrow, 29 March, Wednesday

    Time Temperature Precipitation Wind Pressure Humidity
    00:00 +3°C° 0 mm 1 mps 694 mmHg 87%
    01:00 +3°C° 0 mm 1 mps 694 mmHg 88%
    02:00 +3°C° 0 mm 1 mps 694 mmHg 88%
    03:00 +3°C° 0 mm 1 mps 694 mmHg 87%
    04:00 +3°C° 0 mm 1 mps 694 mmHg 87%
    05:00 +4°C° 0 mm 1 mps 694 mmHg 86%
    06:00 +5°C° 0 mm 1 mps 695 mmHg 85%
    07:00 +6°C° 0 mm 1 mps 695 mmHg 83%
    08:00 +8°C° 0 mm 1 mps 695 mmHg 73%
    09:00 +11°C° 0 mm 1 mps 696 mmHg 62%
    10:00 +14°C° 0 mm 1 mps 697 mmHg 52%
    11:00 +15°C° 0 mm 1 mps 697 mmHg 48%
    12:00 +16°C° 0 mm 1 mps 696 mmHg 44%
    13:00 +19°C° 0 mm 1 mps 696 mmHg 41%
    14:00 +18°C° 0 mm 1 mps 696 mmHg 43%
    15:00 +18°C° 0 mm 1 mps 696 mmHg 44%
    16:00 +16°C° 0 mm 1 mps 695 mmHg 46%
    17:00 +13°C° 0 mm 1 mps 695 mmHg 58%
    18:00 +10°C° 0 mm 1 mps 694 mmHg 71%
    19:00 +7°C° 0 mm 1 mps 694 mmHg 83%
    20:00 +7°C° 0 mm 1 mps 694 mmHg 84%
    21:00 +7°C° 0 mm 1 mps 695 mmHg 84%
    22:00 +6°C° 0 mm 1 mps 695 mmHg 85%
    23:00 +6°C° 0 mm 1 mps 695 mmHg 86%

    30 March, Thursday

    Time Temperature Precipitation Wind Pressure Humidity
    00:00 +6°C° 0 mm 1 mps 695 mmHg 87%
    01:00 +5°C° 0 mm 1 mps 695 mmHg 88%
    02:00 +5°C° 0 mm 1 mps 695 mmHg 88%
    03:00 +5°C° 0 mm 1 mps 695 mmHg 89%
    04:00 +4°C° 0 mm 1 mps 695 mmHg 90%
    05:00 +5°C° 0 mm 1 mps 695 mmHg 88%
    06:00 +6°C° 0 mm 1 mps 696 mmHg 85%
    07:00 +7°C° 0 mm 1 mps 696 mmHg 83%
    08:00 +10°C° 0 mm 1 mps 697 mmHg 72%
    09:00 +12°C° 0 mm 0 mps 697 mmHg 62%
    10:00 +14°C° 0 mm 0 mps 698 mmHg 51%
    11:00 +15°C° 0 mm 0 mps 698 mmHg 48%
    12:00 +18°C° 0 mm 1 mps 698 mmHg 45%
    13:00 +19°C° 0 mm 1 mps 698 mmHg 42%
    14:00 +19°C° 0 mm 1 mps 697 mmHg 44%
    15:00 +18°C° 0 mm 1 mps 697 mmHg 46%
    16:00 +18°C° 0 mm 1 mps 697 mmHg 48%
    17:00 +14°C° 0 mm 1 mps 696 mmHg 61%
    18:00 +11°C° 0 mm 1 mps 696 mmHg 74%
    19:00 +9°C° 0 mm 1 mps 695 mmHg 87%
    20:00 +8°C° 0 mm 1 mps 695 mmHg 89%
    21:00 +7°C° 0 mm 1 mps 695 mmHg 90%
    22:00 +6°C° 0 mm 0 mps 696 mmHg 92%
    23:00 +5°C° 0 mm 0 mps 695 mmHg 93%

    31 March, Friday

    Time Temperature Precipitation Wind Pressure Humidity
    00:00 +5°C° 0 mm 0 mps 695 mmHg 93%
    01:00 +5°C° 0 mm 0 mps 695 mmHg 93%
    02:00 +4°C° 0 mm 0 mps 695 mmHg 93%
    03:00 +4°C° 0 mm 0 mps 694 mmHg 94%
    04:00 +4°C° 0 mm 0 mps 694 mmHg 94%
    05:00 +5°C° 0 mm 0 mps 694 mmHg 92%
    06:00 +6°C° 0 mm 0 mps 694 mmHg 90%
    07:00 +8°C° 0 mm 1 mps 695 mmHg 88%
    08:00 +10°C° 0 mm 1 mps 695 mmHg 78%
    09:00 +13°C° 0 mm 1 mps 695 mmHg 67%
    10:00 +15°C° 0 mm 1 mps 695 mmHg 56%
    11:00 +16°C° 0 mm 1 mps 695 mmHg 52%
    12:00 +17°C° 0 mm 2 mps 694 mmHg 48%
    13:00 +18°C° 0 mm 2 mps 694 mmHg 45%
    14:00 +17°C° 0 mm 2 mps 694 mmHg 46%
    15:00 +17°C° 0 mm 2 mps 693 mmHg 47%
    16:00 +17°C° 0 mm 2 mps 692 mmHg 48%
    17:00 +14°C° 0 mm 2 mps 692 mmHg 59%
    18:00 +12°C° 0 mm 2 mps 691 mmHg 71%
    19:00 +9°C° 0 mm 1 mps 691 mmHg 82%
    20:00 +8°C° 0 mm 1 mps 690 mmHg 85%
    21:00 +8°C° 0 mm 1 mps 690 mmHg 88%
    22:00 +7°C° 0 mm 1 mps 690 mmHg 91%
    23:00 +7°C° 0 mm 1 mps 690 mmHg 91%

    1 April, Saturday

    Time Temperature Precipitation Wind Pressure Humidity
    00:00 +6°C° 0 mm 1 mps 689 mmHg 92%
    01:00 +6°C° 0 mm 1 mps 689 mmHg 93%
    02:00 +5°C° 0 mm 1 mps 689 mmHg 94%
    03:00 +5°C° 0 mm 1 mps 689 mmHg 94%
    04:00 +5°C° 0 mm 1 mps 688 mmHg 95%
    05:00 +6°C° 0 mm 1 mps 688 mmHg 92%
    06:00 +6°C° 0 mm 1 mps 689 mmHg 89%
    07:00 +7°C° 0 mm 1 mps 689 mmHg 87%
    08:00 +9°C° 0 mm 1 mps 689 mmHg 77%
    09:00 +12°C° 0 mm 2 mps 689 mmHg 67%
    10:00 +14°C° 0 mm 2 mps 690 mmHg 57%
    11:00 +15°C° 0 mm 2 mps 690 mmHg 53%
    12:00 +16°C° 0 mm 3 mps 690 mmHg 48%
    13:00 +17°C° 0 mm 3 mps 690 mmHg 43%
    14:00 +16°C° 0 mm 3 mps 689 mmHg 44%
    15:00 +16°C° 0 mm 2 mps 689 mmHg 44%
    16:00 +16°C° 0 mm 2 mps 689 mmHg 45%
    17:00 +13°C° 0 mm 2 mps 688 mmHg 55%
    18:00 +10°C° 0 mm 2 mps 688 mmHg 66%
    19:00 +8°C° 0 mm 1 mps 688 mmHg 76%
    20:00 +8°C° 0 mm 1 mps 688 mmHg 78%
    21:00 +7°C° 0 mm 1 mps 688 mmHg 81%
    22:00 +6°C° 0 mm 1 mps 688 mmHg 83%
    23:00 +6°C° 0 mm 1 mps 688 mmHg 85%
    Show more